QPF
0.04 0.05 0.08 0.15 0.21 0.23 0.26 0.34 0.45 0.46 0.49 0.50 0.49 0.45 0.37 0.31 0.32 0.33 0.34 0.38 0.39 0.33 0.30 0.25 0.22 0.19 0.16 0.14 0.13 0.11 0.09 0.08 0.07 0.07 0.05 0.03 0.02 0.02 0.02 0.02 0.02 0.02 0.02
0.04 0.05 0.08 0.14 0.24 0.28 0.31 0.42 0.48 0.45 0.49 0.57 0.65 0.60 0.52 0.43 0.34 0.32 0.32 0.30 0.29 0.29 0.29 0.25 0.23 0.21 0.17 0.14 0.12 0.10 0.08 0.07 0.07 0.06 0.04 0.02 0.01 0.01 0.01 0.00 0.00 0.00 0.01
0.04 0.05 0.07 0.11 0.24 0.33 0.39 0.48 0.53 0.50 0.55 0.63 0.70 0.62 0.51 0.46 0.38 0.31 0.28 0.22 0.22 0.21 0.20 0.22 0.24 0.23 0.18 0.14 0.12 0.09 0.08 0.07 0.06 0.05 0.05 0.03 0.02 0.01 0.01 0.01 0.01 0.01 0.01
0.04 0.05 0.07 0.08 0.16 0.21 0.33 0.47 0.54 0.54 0.60 0.64 0.70 0.71 0.57 0.45 0.38 0.30 0.24 0.20 0.20 0.17 0.17 0.18 0.18 0.17 0.15 0.11 0.08 0.06 0.05 0.04 0.03 0.03 0.03 0.03 0.03 0.02 0.01 0.01 0.01 0.01 0.02
0.06 0.06 0.07 0.08 0.10 0.13 0.20 0.32 0.41 0.44 0.47 0.49 0.50 0.53 0.50 0.41 0.36 0.32 0.25 0.22 0.20 0.17 0.13 0.12 0.11 0.10 0.11 0.09 0.07 0.04 0.03 0.02 0.01 0.01 0.01 0.01 0.01 0.01 0.02 0.01 0.01 0.01 0.01
0.11 0.09 0.08 0.07 0.08 0.09 0.11 0.16 0.24 0.26 0.27 0.28 0.31 0.33 0.32 0.27 0.23 0.22 0.19 0.16 0.15 0.13 0.10 0.09 0.11 0.11 0.09 0.07 0.05 0.03 0.02 0.01 0.01 0.00 0.00 0.00 0.01 0.01 0.01 0.01 0.01 0.01 0.02
0.15 0.12 0.10 0.07 0.06 0.06 0.08 0.08 0.11 0.15 0.17 0.19 0.18 0.18 0.19 0.17 0.15 0.13 0.13 0.10 0.08 0.07 0.06 0.05 0.05 0.05 0.04 0.02 0.01 0.01 0.00 0.00 0.00 0.00 0.00 0.00 0.01 0.01 0.01 0.01 0.01 0.02 0.02
0.11 0.13 0.13 0.10 0.11 0.08 0.07 0.06 0.06 0.06 0.08 0.10 0.12 0.10 0.09 0.09 0.09 0.09 0.08 0.07 0.06 0.04 0.03 0.02 0.02 0.02 0.02 0.01 0.01 0.01 0.01 0.00 0.00 0.00 0.00 0.00 0.01 0.01 0.01 0.01 0.02 0.02 0.03
0.06 0.07 0.09 0.11 0.10 0.11 0.08 0.06 0.05 0.04 0.03 0.04 0.05 0.06 0.07 0.07 0.06 0.04 0.04 0.04 0.05 0.03 0.01 0.01 0.01 0.01 0.01 0.01 0.01 0.01 0.00 0.00 0.00 0.00 0.00 0.00 0.00 0.01 0.01 0.01 0.01 0.02 0.03
0.07 0.07 0.08 0.07 0.07 0.07 0.07 0.05 0.05 0.04 0.03 0.03 0.03 0.04 0.05 0.05 0.05 0.04 0.04 0.03 0.03 0.03 0.02 0.01 0.01 0.01 0.01 0.01 0.01 0.01 0.01 0.00 0.00 0.00 0.00 0.00 0.00 0.00 0.00 0.00 0.01 0.01 0.02
0.06 0.07 0.09 0.07 0.05 0.04 0.05 0.05 0.06 0.04 0.03 0.02 0.02 0.03 0.02 0.02 0.02 0.02 0.02 0.02 0.02 0.01 0.01 0.01 0.01 0.01 0.00 0.00 0.00 0.00 0.00 0.00 0.00 0.00 0.00 0.00 0.00 0.00 0.00 0.01 0.01 0.01 0.01
0.05 0.05 0.06 0.05 0.04 0.03 0.02 0.03 0.04 0.04 0.03 0.02 0.02 0.02 0.02 0.01 0.01 0.01 0.01 0.00 0.00 0.00 0.00 0.00 0.00 0.00 0.00 0.00 0.00 0.00 0.00 0.00 0.00 0.00 0.00 0.00 0.00 0.00 0.00 0.00 0.01 0.01 0.01
0.08 0.05 0.04 0.03 0.02 0.01 0.01 0.01 0.01 0.02 0.02 0.02 0.01 0.01 0.01 0.01 0.00 0.00 0.00 0.00 0.00 0.00 0.00 0.00 0.00 0.00 0.00 0.00 0.00 0.00 0.00 0.00 0.00 0.00 0.00 0.00 0.00 0.00 0.00 0.00 0.00 0.00 0.00
0.08 0.05 0.03 0.03 0.02 0.01 0.00 0.01 0.01 0.00 0.00 0.00 0.00 0.00 0.00 0.00 0.00 0.00 0.00 0.00 0.00 0.00 0.00 0.00 0.00 0.00 0.00 0.00 0.00 0.00 0.00 0.00 0.00 0.00 0.00 0.00 0.00 0.00 0.00 0.00 0.00 0.00 0.00
0.06 0.04 0.02 0.03 0.03 0.02 0.01 0.01 0.01 0.00 0.00 0.00 0.00 0.00 0.00 0.00 0.00 0.00 0.00 0.00 0.00 0.00 0.00 0.00 0.00 0.00 0.00 0.00 0.00 0.00 0.00 0.00 0.00 0.00 0.00 0.00 0.00 0.00 0.00 0.00 0.00 0.00 0.00
0.05 0.03 0.03 0.03 0.03 0.02 0.01 0.01 0.01 0.00 0.00 0.00 0.00 0.00 0.00 0.00 0.00 0.00 0.00 0.00 0.00 0.00 0.00 0.00 0.00 0.00 0.00 0.00 0.00 0.00 0.00 0.00 0.00 0.00 0.00 0.00 0.00 0.00 0.00 0.00 0.00 0.00 0.00
0.06 0.04 0.03 0.02 0.02 0.01 0.01 0.01 0.01 0.00 0.00 0.00 0.00 0.00 0.00 0.00 0.00 0.00 0.00 0.00 0.00 0.00 0.00 0.00 0.00 0.00 0.00 0.00 0.00 0.00 0.00 0.00 0.00 0.00 0.00 0.00 0.00 0.00 0.00 0.00 0.00 0.00 0.00
0.06 0.05 0.05 0.03 0.02 0.01 0.01 0.00 0.00 0.01 0.01 0.00 0.00 0.00 0.00 0.00 0.00 0.00 0.00 0.00 0.00 0.00 0.00 0.00 0.00 0.00 0.00 0.00 0.00 0.00 0.00 0.00 0.00 0.00 0.00 0.00 0.00 0.00 0.00 0.00 0.00 0.00 0.00
0.05 0.04 0.03 0.02 0.01 0.01 0.01 0.01 0.01 0.01 0.02 0.01 0.00 0.00 0.01 0.01 0.00 0.00 0.00 0.00 0.00 0.00 0.00 0.00 0.00 0.00 0.00 0.00 0.00 0.00 0.00 0.00 0.00 0.00 0.00 0.00 0.00 0.00 0.00 0.00 0.00 0.00 0.00
0.08 0.05 0.04 0.02 0.02 0.01 0.01 0.01 0.00 0.01 0.01 0.01 0.01 0.01 0.01 0.00 0.00 0.00 0.00 0.00 0.00 0.00 0.00 0.00 0.00 0.00 0.00 0.00 0.00 0.00 0.00 0.00 0.00 0.00 0.00 0.00 0.00 0.00 0.00 0.00 0.00 0.00 0.00
0.08 0.06 0.04 0.03 0.02 0.02 0.01 0.01 0.00 0.00 0.01 0.01 0.01 0.01 0.00 0.00 0.00 0.00 0.00 0.00 0.00 0.00 0.00 0.00 0.00 0.00 0.00 0.00 0.00 0.00 0.00 0.00 0.00 0.00 0.00 0.00 0.00 0.00 0.00 0.00 0.00 0.00 0.00
0.05 0.05 0.03 0.03 0.02 0.02 0.01 0.01 0.00 0.00 0.00 0.00 0.00 0.00 0.00 0.00 0.00 0.00 0.00 0.00 0.00 0.00 0.00 0.00 0.00 0.00 0.00 0.00 0.00 0.00 0.00 0.00 0.00 0.00 0.00 0.00 0.00 0.00 0.00 0.00 0.00 0.00 0.00
0.03 0.03 0.02 0.02 0.02 0.02 0.01 0.00 0.00 0.00 0.00 0.00 0.00 0.00 0.00 0.00 0.00 0.00 0.00 0.00 0.00 0.00 0.00 0.00 0.00 0.00 0.00 0.00 0.00 0.00 0.00 0.00 0.00 0.00 0.00 0.00 0.00 0.00 0.00 0.00 0.00 0.00 0.00
0.02 0.02 0.01 0.01 0.01 0.01 0.00 0.00 0.00 0.00 0.00 0.00 0.00 0.00 0.00 0.00 0.00 0.00 0.00 0.00 0.00 0.00 0.00 0.00 0.00 0.00 0.00 0.00 0.00 0.00 0.00 0.00 0.00 0.00 0.00 0.00 0.00 0.00 0.00 0.00 0.00 0.00 0.00
0.01 0.01 0.01 0.01 0.01 0.00 0.00 0.00 0.00 0.00 0.00 0.00 0.00 0.00 0.00 0.00 0.00 0.00 0.00 0.00 0.00 0.00 0.00 0.00 0.00 0.00 0.00 0.00 0.00 0.00 0.00 0.00 0.00 0.00 0.00 0.00 0.00 0.00 0.00 0.00 0.00 0.00 0.00
0.01 0.01 0.01 0.01 0.01 0.00 0.00 0.00 0.00 0.00 0.00 0.00 0.00 0.00 0.00 0.00 0.00 0.00 0.00 0.00 0.00 0.00 0.00 0.00 0.00 0.00 0.00 0.00 0.00 0.00 0.00 0.00 0.00 0.00 0.00 0.00 0.00 0.00 0.00 0.00 0.00 0.00 0.00
MSLP
1011.02 1011.15 1011.28 1011.38 1011.44 1011.44 1011.41 1011.36 1011.34 1011.39 1011.53 1011.79 1012.16 1012.63 1013.17 1013.73 1014.29 1014.81 1015.27 1015.67 1016.03 1016.35 1016.67 1017.00 1017.34 1017.71 1018.08 1018.44 1018.77 1019.05 1019.28 1019.46 1019.59 1019.70 1019.79 1019.88 1019.98 1020.09 1020.21 1020.32 1020.42 1020.48 1020.51
1012.11 1012.27 1012.37 1012.38 1012.29 1012.11 1011.86 1011.61 1011.39 1011.29 1011.32 1011.52 1011.88 1012.37 1012.96 1013.59 1014.21 1014.79 1015.32 1015.79 1016.20 1016.59 1016.96 1017.33 1017.71 1018.09 1018.46 1018.80 1019.10 1019.35 1019.54 1019.69 1019.81 1019.92 1020.04 1020.17 1020.33 1020.51 1020.70 1020.87 1021.02 1021.13 1021.18
1013.02 1013.20 1013.29 1013.23 1013.02 1012.68 1012.25 1011.82 1011.45 1011.21 1011.16 1011.32 1011.67 1012.19 1012.83 1013.53 1014.23 1014.89 1015.49 1016.03 1016.50 1016.94 1017.36 1017.76 1018.16 1018.55 1018.91 1019.22 1019.49 1019.70 1019.86 1019.98 1020.09 1020.20 1020.34 1020.51 1020.72 1020.95 1021.19 1021.41 1021.60 1021.74 1021.81
1013.73 1013.94 1014.02 1013.92 1013.63 1013.18 1012.64 1012.07 1011.59 1011.26 1011.15 1011.28 1011.64 1012.20 1012.89 1013.65 1014.42 1015.15 1015.82 1016.42 1016.95 1017.43 1017.88 1018.31 1018.71 1019.09 1019.43 1019.73 1019.96 1020.14 1020.27 1020.38 1020.48 1020.60 1020.75 1020.95 1021.18 1021.45 1021.72 1021.97 1022.18 1022.33 1022.41
1014.28 1014.54 1014.64 1014.53 1014.21 1013.72 1013.10 1012.47 1011.93 1011.55 1011.41 1011.53 1011.90 1012.48 1013.21 1014.02 1014.84 1015.62 1016.34 1016.97 1017.54 1018.04 1018.51 1018.94 1019.34 1019.71 1020.03 1020.31 1020.52 1020.68 1020.81 1020.91 1021.01 1021.14 1021.30 1021.51 1021.75 1022.02 1022.30 1022.55 1022.75 1022.89 1022.96
1014.76 1015.08 1015.22 1015.15 1014.86 1014.37 1013.75 1013.11 1012.56 1012.17 1012.02 1012.14 1012.52 1013.11 1013.86 1014.68 1015.52 1016.32 1017.04 1017.69 1018.26 1018.77 1019.23 1019.65 1020.04 1020.39 1020.70 1020.96 1021.17 1021.33 1021.45 1021.56 1021.68 1021.81 1021.98 1022.19 1022.43 1022.68 1022.93 1023.16 1023.33 1023.45 1023.49
1015.27 1015.65 1015.86 1015.86 1015.63 1015.19 1014.63 1014.03 1013.51 1013.15 1013.01 1013.13 1013.51 1014.09 1014.82 1015.62 1016.44 1017.22 1017.93 1018.56 1019.11 1019.59 1020.03 1020.42 1020.78 1021.11 1021.41 1021.66 1021.87 1022.04 1022.18 1022.31 1022.44 1022.58 1022.75 1022.95 1023.17 1023.39 1023.60 1023.78 1023.91 1023.98 1023.99
1015.87 1016.31 1016.60 1016.68 1016.54 1016.20 1015.73 1015.21 1014.75 1014.43 1014.32 1014.45 1014.80 1015.35 1016.04 1016.80 1017.56 1018.29 1018.95 1019.53 1020.03 1020.47 1020.87 1021.22 1021.55 1021.86 1022.13 1022.38 1022.59 1022.77 1022.93 1023.07 1023.22 1023.37 1023.54 1023.72 1023.91 1024.09 1024.25 1024.37 1024.45 1024.48 1024.44
1016.56 1017.06 1017.42 1017.60 1017.56 1017.33 1016.97 1016.55 1016.18 1015.92 1015.84 1015.96 1016.29 1016.80 1017.42 1018.10 1018.79 1019.45 1020.04 1020.55 1021.00 1021.38 1021.72 1022.03 1022.32 1022.59 1022.84 1023.07 1023.28 1023.47 1023.64 1023.80 1023.96 1024.11 1024.27 1024.43 1024.57 1024.71 1024.82 1024.89 1024.92 1024.91 1024.84
1017.30 1017.86 1018.29 1018.54 1018.60 1018.49 1018.24 1017.93 1017.65 1017.45 1017.41 1017.53 1017.83 1018.28 1018.82 1019.42 1020.03 1020.60 1021.11 1021.56 1021.94 1022.27 1022.56 1022.82 1023.06 1023.29 1023.51 1023.72 1023.92 1024.11 1024.28 1024.44 1024.59 1024.74 1024.87 1025.00 1025.11 1025.20 1025.26 1025.29 1025.28 1025.23 1025.14
1018.05 1018.64 1019.11 1019.43 1019.58 1019.56 1019.42 1019.22 1019.02 1018.89 1018.88 1019.00 1019.27 1019.65 1020.13 1020.65 1021.17 1021.66 1022.11 1022.49 1022.82 1023.10 1023.35 1023.56 1023.76 1023.96 1024.14 1024.32 1024.49 1024.65 1024.80 1024.95 1025.08 1025.20 1025.31 1025.40 1025.48 1025.52 1025.55 1025.54 1025.50 1025.43 1025.33
1018.74 1019.34 1019.84 1020.20 1020.41 1020.47 1020.42 1020.31 1020.19 1020.12 1020.14 1020.26 1020.50 1020.83 1021.24 1021.69 1022.14 1022.58 1022.97 1023.31 1023.61 1023.86 1024.07 1024.26 1024.42 1024.58 1024.72 1024.86 1024.99 1025.11 1025.23 1025.34 1025.44 1025.52 1025.59 1025.64 1025.67 1025.68 1025.66 1025.62 1025.57 1025.49 1025.38
1019.35 1019.95 1020.45 1020.83 1021.08 1021.20 1021.22 1021.19 1021.14 1021.12 1021.16 1021.28 1021.49 1021.78 1022.14 1022.53 1022.93 1023.32 1023.68 1024.00 1024.28 1024.52 1024.72 1024.89 1025.03 1025.15 1025.25 1025.34 1025.42 1025.50 1025.57 1025.63 1025.68 1025.71 1025.73 1025.74 1025.72 1025.68 1025.63 1025.56 1025.49 1025.40 1025.30
1019.87 1020.46 1020.95 1021.33 1021.60 1021.76 1021.84 1021.86 1021.87 1021.89 1021.96 1022.08 1022.27 1022.52 1022.83 1023.17 1023.53 1023.90 1024.24 1024.56 1024.84 1025.09 1025.29 1025.45 1025.57 1025.66 1025.73 1025.78 1025.81 1025.83 1025.84 1025.85 1025.84 1025.82 1025.79 1025.73 1025.66 1025.58 1025.49 1025.39 1025.29 1025.19 1025.10
1020.33 1020.90 1021.37 1021.75 1022.03 1022.22 1022.34 1022.42 1022.47 1022.52 1022.60 1022.72 1022.89 1023.11 1023.37 1023.68 1024.01 1024.35 1024.69 1025.01 1025.30 1025.56 1025.77 1025.94 1026.05 1026.12 1026.16 1026.16 1026.15 1026.12 1026.07 1026.02 1025.96 1025.88 1025.79 1025.68 1025.56 1025.42 1025.28 1025.14 1025.02 1024.90 1024.80
1020.76 1021.30 1021.76 1022.13 1022.42 1022.64 1022.80 1022.91 1023.00 1023.08 1023.17 1023.28 1023.43 1023.61 1023.84 1024.10 1024.40 1024.72 1025.05 1025.38 1025.68 1025.95 1026.17 1026.34 1026.45 1026.51 1026.52 1026.49 1026.44 1026.36 1026.27 1026.17 1026.05 1025.92 1025.78 1025.62 1025.44 1025.25 1025.06 1024.88 1024.71 1024.56 1024.44
1021.16 1021.69 1022.14 1022.51 1022.82 1023.06 1023.26 1023.41 1023.53 1023.63 1023.72 1023.82 1023.94 1024.08 1024.27 1024.49 1024.76 1025.05 1025.37 1025.69 1026.00 1026.27 1026.50 1026.67 1026.77 1026.82 1026.81 1026.76 1026.67 1026.56 1026.43 1026.29 1026.14 1025.97 1025.78 1025.57 1025.35 1025.11 1024.87 1024.63 1024.42 1024.23 1024.07
1021.54 1022.06 1022.51 1022.89 1023.22 1023.50 1023.73 1023.91 1024.06 1024.18 1024.27 1024.36 1024.45 1024.55 1024.69 1024.88 1025.10 1025.37 1025.66 1025.96 1026.26 1026.53 1026.75 1026.91 1027.01 1027.05 1027.02 1026.95 1026.84 1026.71 1026.56 1026.39 1026.21 1026.01 1025.80 1025.55 1025.29 1025.01 1024.72 1024.44 1024.18 1023.95 1023.75
1021.87 1022.39 1022.85 1023.25 1023.60 1023.91 1024.17 1024.39 1024.57 1024.70 1024.79 1024.87 1024.93 1025.01 1025.11 1025.25 1025.44 1025.67 1025.93 1026.21 1026.48 1026.74 1026.94 1027.09 1027.17 1027.19 1027.16 1027.07 1026.95 1026.80 1026.64 1026.47 1026.28 1026.07 1025.83 1025.57 1025.28 1024.97 1024.65 1024.33 1024.03 1023.75 1023.51
1022.13 1022.65 1023.12 1023.54 1023.92 1024.26 1024.55 1024.80 1025.00 1025.14 1025.24 1025.31 1025.36 1025.41 1025.49 1025.60 1025.75 1025.95 1026.18 1026.43 1026.68 1026.90 1027.09 1027.21 1027.28 1027.28 1027.23 1027.14 1027.01 1026.86 1026.70 1026.52 1026.33 1026.12 1025.88 1025.62 1025.32 1025.00 1024.66 1024.31 1023.97 1023.66 1023.38
1022.31 1022.83 1023.30 1023.73 1024.13 1024.49 1024.82 1025.09 1025.30 1025.46 1025.57 1025.64 1025.69 1025.73 1025.79 1025.88 1026.02 1026.19 1026.40 1026.62 1026.84 1027.04 1027.20 1027.30 1027.35 1027.33 1027.27 1027.17 1027.04 1026.89 1026.73 1026.56 1026.38 1026.17 1025.95 1025.69 1025.40 1025.07 1024.73 1024.37 1024.02 1023.68 1023.37
1022.41 1022.92 1023.39 1023.82 1024.23 1024.61 1024.94 1025.23 1025.46 1025.63 1025.75 1025.83 1025.88 1025.94 1026.00 1026.09 1026.22 1026.38 1026.58 1026.78 1026.98 1027.15 1027.29 1027.37 1027.40 1027.37 1027.29 1027.19 1027.05 1026.91 1026.76 1026.59 1026.42 1026.23 1026.02 1025.78 1025.50 1025.20 1024.87 1024.52 1024.17 1023.82 1023.49
1022.46 1022.95 1023.40 1023.83 1024.24 1024.61 1024.94 1025.23 1025.47 1025.65 1025.78 1025.88 1025.95 1026.02 1026.11 1026.22 1026.36 1026.53 1026.72 1026.91 1027.10 1027.25 1027.37 1027.43 1027.44 1027.40 1027.32 1027.20 1027.07 1026.93 1026.78 1026.63 1026.47 1026.30 1026.11 1025.89 1025.64 1025.36 1025.05 1024.73 1024.39 1024.06 1023.72
1022.49 1022.95 1023.39 1023.80 1024.18 1024.54 1024.86 1025.14 1025.37 1025.55 1025.70 1025.82 1025.92 1026.02 1026.14 1026.28 1026.44 1026.62 1026.82 1027.01 1027.19 1027.33 1027.43 1027.48 1027.47 1027.42 1027.34 1027.23 1027.10 1026.96 1026.83 1026.68 1026.54 1026.38 1026.21 1026.01 1025.79 1025.55 1025.28 1024.99 1024.68 1024.37 1024.05
1022.55 1022.99 1023.39 1023.77 1024.13 1024.45 1024.75 1025.01 1025.22 1025.41 1025.57 1025.70 1025.83 1025.97 1026.12 1026.29 1026.49 1026.69 1026.89 1027.09 1027.26 1027.39 1027.47 1027.51 1027.49 1027.44 1027.35 1027.25 1027.13 1027.00 1026.88 1026.75 1026.62 1026.48 1026.33 1026.16 1025.97 1025.76 1025.53 1025.28 1025.01 1024.73 1024.43
1022.66 1023.07 1023.44 1023.79 1024.11 1024.40 1024.66 1024.89 1025.09 1025.27 1025.43 1025.58 1025.74 1025.91 1026.09 1026.30 1026.51 1026.73 1026.94 1027.13 1027.29 1027.41 1027.48 1027.51 1027.49 1027.43 1027.35 1027.25 1027.15 1027.04 1026.93 1026.82 1026.71 1026.59 1026.46 1026.32 1026.16 1025.99 1025.80 1025.59 1025.37 1025.12 1024.84
Thickness
5697 5702 5706 5709 5711 5711 5712 5712 5710 5711 5710 5707 5703 5700 5698 5695 5694 5692 5691 5691 5692 5691 5691 5689 5688 5687 5686 5685 5684 5683 5681 5679 5679 5677 5675 5674 5674 5674 5673 5672 5672 5671 5671
5686 5690 5693 5696 5699 5700 5701 5702 5702 5702 5703 5701 5697 5694 5689 5685 5682 5681 5681 5683 5682 5682 5682 5680 5678 5678 5677 5676 5675 5675 5674 5671 5669 5669 5667 5664 5664 5664 5663 5662 5662 5661 5660
5673 5678 5682 5684 5687 5689 5691 5693 5692 5694 5694 5694 5691 5686 5679 5675 5672 5671 5671 5671 5671 5671 5670 5670 5669 5669 5668 5666 5665 5665 5664 5662 5659 5659 5659 5657 5654 5652 5652 5650 5649 5649 5648
5662 5665 5669 5672 5675 5677 5680 5682 5683 5684 5685 5686 5683 5678 5672 5668 5663 5661 5659 5659 5659 5658 5658 5659 5658 5657 5657 5655 5654 5653 5653 5653 5650 5648 5646 5644 5643 5642 5641 5640 5637 5636 5634
5652 5654 5657 5660 5663 5666 5669 5671 5672 5673 5674 5675 5674 5670 5664 5660 5655 5652 5650 5648 5647 5647 5646 5646 5646 5646 5644 5643 5642 5642 5641 5640 5637 5634 5633 5632 5629 5628 5628 5626 5624 5622 5620
5642 5643 5646 5649 5652 5655 5657 5659 5661 5661 5661 5662 5662 5659 5655 5650 5647 5643 5640 5637 5635 5634 5633 5633 5634 5633 5632 5631 5630 5629 5628 5626 5624 5621 5619 5616 5614 5612 5611 5609 5607 5606 5605
5632 5633 5635 5637 5640 5642 5644 5646 5647 5647 5648 5648 5646 5645 5643 5639 5635 5631 5628 5626 5623 5621 5620 5621 5621 5620 5619 5618 5617 5616 5614 5612 5610 5607 5603 5601 5598 5597 5595 5594 5591 5590 5588
5622 5622 5622 5624 5627 5629 5630 5632 5633 5633 5634 5634 5632 5631 5629 5625 5622 5619 5616 5614 5611 5608 5609 5609 5608 5607 5606 5605 5604 5602 5599 5597 5595 5592 5589 5586 5584 5582 5580 5578 5577 5575 5573
5611 5610 5611 5612 5613 5615 5616 5618 5619 5619 5619 5619 5618 5616 5614 5611 5608 5606 5604 5602 5599 5598 5597 5596 5595 5594 5593 5591 5591 5588 5585 5583 5579 5577 5574 5572 5569 5567 5565 5562 5560 5559 5558
5601 5599 5599 5600 5601 5602 5602 5604 5605 5605 5604 5605 5605 5602 5599 5597 5596 5594 5591 5588 5586 5585 5585 5584 5582 5580 5579 5577 5576 5573 5571 5569 5565 5563 5560 5557 5554 5552 5549 5546 5544 5542 5540
5592 5590 5589 5588 5589 5590 5590 5591 5591 5591 5591 5590 5589 5588 5585 5584 5583 5581 5578 5576 5574 5573 5571 5570 5568 5566 5565 5563 5561 5558 5556 5554 5551 5549 5546 5543 5540 5536 5533 5531 5528 5526 5523
5584 5581 5579 5578 5577 5577 5578 5579 5579 5578 5577 5576 5575 5574 5572 5571 5569 5567 5564 5563 5561 5560 5558 5557 5555 5553 5551 5548 5546 5544 5542 5540 5537 5534 5532 5529 5526 5522 5519 5517 5514 5511 5508
5578 5574 5572 5569 5567 5567 5567 5566 5566 5565 5564 5563 5561 5559 5558 5556 5555 5553 5552 5551 5549 5548 5546 5544 5542 5539 5537 5535 5533 5531 5529 5527 5524 5522 5519 5516 5513 5510 5507 5504 5501 5498 5495
5572 5568 5564 5560 5558 5557 5556 5555 5553 5552 5551 5550 5548 5546 5544 5543 5542 5541 5540 5538 5537 5535 5533 5531 5529 5526 5524 5522 5521 5519 5517 5515 5512 5510 5508 5505 5503 5500 5497 5493 5490 5487 5484
5565 5561 5557 5553 5550 5548 5546 5544 5542 5541 5539 5538 5536 5534 5532 5532 5531 5529 5528 5526 5524 5522 5520 5519 5516 5514 5513 5511 5510 5508 5506 5503 5501 5499 5497 5495 5493 5490 5487 5484 5481 5478 5475
5560 5554 5549 5545 5542 5539 5537 5534 5532 5530 5529 5527 5525 5523 5522 5521 5520 5518 5517 5515 5512 5510 5509 5507 5505 5504 5502 5500 5499 5497 5495 5493 5491 5489 5488 5486 5484 5481 5479 5476 5474 5471 5468
5554 5547 5542 5538 5534 5531 5528 5525 5523 5521 5519 5517 5516 5514 5513 5511 5510 5509 5507 5504 5502 5500 5498 5496 5494 5493 5491 5490 5489 5488 5486 5484 5482 5480 5479 5478 5476 5474 5472 5470 5469 5466 5464
5547 5540 5535 5529 5525 5523 5520 5518 5515 5513 5511 5509 5508 5506 5504 5502 5500 5499 5497 5494 5492 5491 5489 5487 5485 5484 5483 5482 5480 5479 5478 5476 5474 5473 5472 5471 5470 5468 5466 5465 5464 5463 5461
5540 5533 5528 5523 5518 5515 5512 5509 5506 5504 5502 5500 5499 5497 5496 5493 5492 5490 5487 5485 5484 5482 5480 5479 5477 5476 5474 5474 5473 5472 5471 5470 5469 5468 5467 5465 5465 5463 5462 5460 5459 5459 5459
5531 5525 5520 5515 5510 5507 5504 5501 5498 5496 5494 5493 5491 5490 5488 5486 5484 5481 5479 5477 5476 5475 5473 5472 5470 5469 5468 5467 5466 5466 5465 5464 5464 5464 5463 5461 5460 5460 5459 5457 5455 5455 5455
5524 5518 5513 5507 5503 5500 5497 5494 5491 5489 5488 5486 5485 5483 5481 5479 5477 5474 5472 5471 5470 5468 5466 5465 5463 5462 5461 5460 5460 5459 5458 5457 5457 5458 5458 5458 5458 5458 5457 5456 5453 5451 5450
5517 5512 5506 5500 5496 5493 5491 5487 5484 5483 5482 5480 5478 5476 5474 5473 5471 5468 5466 5464 5463 5461 5459 5457 5456 5456 5455 5454 5454 5453 5453 5453 5453 5453 5453 5454 5455 5455 5455 5454 5452 5451 5450
5511 5505 5500 5494 5489 5487 5485 5482 5479 5478 5476 5474 5472 5470 5468 5465 5464 5461 5459 5457 5455 5454 5452 5451 5450 5449 5449 5449 5449 5450 5450 5451 5450 5450 5451 5451 5452 5452 5451 5450 5449 5449 5447
5505 5499 5494 5489 5483 5481 5480 5478 5476 5474 5472 5469 5466 5463 5462 5459 5457 5455 5454 5452 5450 5448 5447 5446 5445 5444 5445 5446 5446 5447 5448 5449 5449 5448 5449 5449 5448 5448 5447 5446 5445 5444 5442
5501 5495 5490 5484 5480 5478 5476 5474 5473 5471 5467 5464 5462 5459 5457 5455 5453 5451 5449 5448 5446 5445 5443 5442 5441 5441 5442 5442 5442 5442 5444 5445 5445 5445 5445 5444 5443 5442 5440 5440 5440 5439 5439
5497 5491 5486 5482 5479 5476 5474 5472 5470 5468 5465 5461 5458 5456 5453 5451 5450 5448 5447 5446 5445 5444 5442 5441 5440 5439 5439 5440 5441 5441 5442 5442 5442 5440 5438 5436 5435 5434 5433 5433 5434 5434 5434